Radioactive Concentration measured by Seawater Radiation Monitor near Fukushima Daiichi Nuclear Power Station
Date,Time,Cs137(Bq/L),Cs134(Bq/L),Total β(Bq/L)
2017/07/04,00:00,0.70,ND,ND
2017/07/04,00:10,0.71,ND,ND
2017/07/04,00:20,0.70,ND,ND
2017/07/04,00:30,0.70,ND,ND
2017/07/04,00:40,0.67,ND,ND
2017/07/04,00:50,0.64,ND,ND
2017/07/04,01:00,0.64,ND,ND
2017/07/04,01:10,0.65,ND,ND
2017/07/04,01:20,0.65,ND,ND
2017/07/04,01:30,0.64,ND,ND
2017/07/04,01:40,0.65,ND,ND
2017/07/04,01:50,0.68,ND,ND
2017/07/04,02:00,0.68,ND,ND
2017/07/04,02:10,0.62,0.029,ND
2017/07/04,02:20,0.62,0.028,ND
2017/07/04,02:30,0.64,0.040,ND
2017/07/04,02:40,0.66,0.034,ND
2017/07/04,02:50,0.64,0.033,ND
2017/07/04,03:00,0.64,0.027,ND
2017/07/04,03:10,0.70,ND,ND
2017/07/04,03:20,0.67,ND,ND
2017/07/04,03:30,0.68,ND,ND
2017/07/04,03:40,0.69,ND,ND
2017/07/04,03:50,0.70,ND,ND
2017/07/04,04:00,0.70,ND,ND
2017/07/04,04:10,0.70,ND,ND
2017/07/04,04:20,0.71,ND,ND
2017/07/04,04:30,0.67,0.026,ND
2017/07/04,04:40,0.71,ND,ND
2017/07/04,04:50,0.71,ND,ND
2017/07/04,05:00,0.68,0.026,ND
2017/07/04,05:10,0.64,0.056,ND
2017/07/04,05:20,0.68,0.025,ND
2017/07/04,05:30,0.67,0.028,ND
2017/07/04,05:40,0.66,0.033,ND
2017/07/04,05:50,0.67,0.037,ND
2017/07/04,06:00,0.69,0.038,ND
2017/07/04,06:10,0.68,0.043,ND
2017/07/04,06:20,0.69,0.039,ND
2017/07/04,06:30,0.69,0.034,ND
2017/07/04,06:40,0.75,ND,ND
2017/07/04,06:50,0.73,ND,ND
2017/07/04,07:00,0.71,ND,ND
2017/07/04,07:10,0.71,ND,ND
2017/07/04,07:20,0.72,ND,ND
2017/07/04,07:30,0.73,ND,ND
2017/07/04,07:40,0.71,ND,ND
2017/07/04,07:50,0.69,ND,ND
2017/07/04,08:00,0.73,ND,ND
2017/07/04,08:10,0.67,0.028,ND
2017/07/04,08:20,0.68,ND,ND
2017/07/04,08:30,0.65,ND,ND
2017/07/04,08:40,0.64,ND,ND
2017/07/04,08:50,0.65,ND,ND
2017/07/04,09:00,0.60,ND,ND
2017/07/04,09:10,0.60,ND,ND
2017/07/04,09:20,0.59,ND,ND
2017/07/04,09:30,0.58,ND,ND
2017/07/04,09:40,0.57,ND,ND
2017/07/04,09:50,0.54,ND,ND
2017/07/04,10:00,0.55,ND,ND
2017/07/04,10:10,0.54,ND,ND
2017/07/04,10:20,0.55,ND,ND
2017/07/04,10:30,0.56,ND,ND
2017/07/04,10:40,0.56,ND,ND
2017/07/04,10:50,0.58,ND,ND
2017/07/04,11:00,0.50,0.052,ND
2017/07/04,11:10,0.50,0.050,ND
2017/07/04,11:20,0.50,0.056,ND
2017/07/04,11:30,0.52,0.057,ND
2017/07/04,11:40,0.60,ND,ND
2017/07/04,11:50,0.60,ND,ND
2017/07/04,12:00,0.59,ND,ND
2017/07/04,12:10,0.62,ND,ND
2017/07/04,12:20,0.61,ND,ND
2017/07/04,12:30,0.59,ND,ND
2017/07/04,12:40,0.60,ND,ND
2017/07/04,12:50,0.60,ND,ND
2017/07/04,13:00,0.60,ND,ND
2017/07/04,13:10,0.58,ND,ND
2017/07/04,13:20,0.58,ND,ND
2017/07/04,13:30,0.59,ND,ND
2017/07/04,13:40,0.52,0.053,ND
2017/07/04,13:50,0.60,ND,ND
2017/07/04,14:00,0.59,ND,ND
2017/07/04,14:10,0.50,0.058,ND
2017/07/04,14:20,0.53,0.027,ND
2017/07/04,14:30,0.52,0.027,ND
2017/07/04,14:40,0.49,0.026,ND
2017/07/04,14:50,0.55,ND,ND
2017/07/04,15:00,0.53,0.026,ND
2017/07/04,15:10,0.53,0.026,ND
2017/07/04,15:20,0.54,0.028,ND
2017/07/04,15:30,0.55,0.027,ND
2017/07/04,15:40,0.60,ND,ND
2017/07/04,15:50,0.61,ND,ND
2017/07/04,16:00,0.59,ND,ND
2017/07/04,16:10,0.51,0.059,ND
2017/07/04,16:20,0.51,0.059,ND
2017/07/04,16:30,0.54,0.049,ND
2017/07/04,16:40,0.57,0.030,ND
2017/07/04,16:50,0.53,0.058,ND
2017/07/04,17:00,0.55,0.049,ND
2017/07/04,17:10,0.60,ND,ND
2017/07/04,17:20,0.60,ND,ND
2017/07/04,17:30,0.59,ND,ND
2017/07/04,17:40,0.58,ND,ND
2017/07/04,17:50,0.55,ND,ND
2017/07/04,18:00,0.55,ND,ND
2017/07/04,18:10,0.55,ND,ND
2017/07/04,18:20,0.56,ND,ND
2017/07/04,18:30,0.53,0.025,ND
2017/07/04,18:40,0.58,ND,ND
2017/07/04,18:50,0.56,0.031,ND
2017/07/04,19:00,0.56,0.028,ND
2017/07/04,19:10,0.56,0.040,ND
2017/07/04,19:20,0.58,0.033,ND
2017/07/04,19:30,0.59,0.038,ND
2017/07/04,19:40,0.59,0.037,ND
2017/07/04,19:50,0.59,0.035,ND
2017/07/04,20:00,0.56,0.058,ND
2017/07/04,20:10,0.57,0.062,ND
2017/07/04,20:20,0.56,0.061,ND
2017/07/04,20:30,0.56,0.059,ND
2017/07/04,20:40,0.54,0.059,ND
2017/07/04,20:50,0.55,0.051,ND
2017/07/04,21:00,0.59,0.028,ND
2017/07/04,21:10,0.63,ND,ND
2017/07/04,21:20,0.64,ND,ND
2017/07/04,21:30,0.64,ND,ND
2017/07/04,21:40,0.59,0.029,ND
2017/07/04,21:50,0.63,ND,ND
2017/07/04,22:00,0.63,ND,ND
2017/07/04,22:10,0.63,ND,ND
2017/07/04,22:20,0.62,ND,ND
2017/07/04,22:30,0.63,ND,ND
2017/07/04,22:40,0.63,ND,ND
2017/07/04,22:50,0.64,ND,ND
2017/07/04,23:00,0.65,ND,ND
2017/07/04,23:10,0.58,0.041,ND
2017/07/04,23:20,0.62,ND,ND
2017/07/04,23:30,0.61,ND,ND
2017/07/04,23:40,0.55,0.034,ND
2017/07/04,23:50,0.60,ND,ND
